This demonstration page uses our WeatherBlox Daily Observations layout. Learn more.

Left ArrowRight Arrow

44.31136, -96.79839

Hourly Observations for August 10, 2017

Temp ( °F °C ) Dew Point ( °F °C ) Humidity (%) Winds ( mph kmh ) Pressure ( in mb ) Visibility ( mi km ) Precip ( " mm )
12:56 am 00:56 Clear 61 16.1 57 13.9 87 87 Calm 30.01 1016 N/A 0.00 0.00
1:56 am 01:56 Clear 58 14.4 56 13.3 93 93 W 7 11 30.03 1017 N/A 0.00 0.00
2:56 am 02:56 Clear 57 13.9 55 12.8 93 93 WNW 8 13 30.04 1017 N/A 0.00 0.00
3:56 am 03:56 Clear 58 14.4 57 13.9 97 97 WNW 8 13 30.03 1017 N/A 0.00 0.00
4:56 am 04:56 Clear 58 14.4 56 13.3 93 93 NW 8 13 30.04 1017 N/A 0.00 0.00
6:44 am 06:44 Mostly Cloudy 57 14 55 13 94 94 WNW 10 17 30.06 1018 N/A 0.00 0.00
6:48 am 06:48 Mostly Cloudy 57 14 55 13 94 94 NW 13 20 30.06 1018 N/A 0.00 0.00
6:56 am 06:56 Mostly Cloudy 57 13.9 56 13.3 96 96 WNW 12 19 30.08 1019 N/A 0.00 0.00
7:11 am 07:11 Cloudy 57 14 55 13 94 94 WNW 9 15 30.06 1018 N/A 0.00 0.00
7:56 am 07:56 Cloudy 57 13.9 57 13.9 100 100 NNW 9 15 30.11 1020 N/A 0.00 0.00
8:32 am 08:32 Cloudy 59 15 57 14 94 94 NW 13 20 30.09 1019 N/A 0.00 0.00
8:56 am 08:56 Cloudy 60 15.6 58 14.4 93 93 NW 9 15 30.12 1020 N/A 0.00 0.00
9:45 am 09:45 Cloudy 63 17 57 14 83 83 NNW 13 20 30.06 1018 N/A 0.00 0.00
9:56 am 09:56 Cloudy 63 17.2 57 13.9 81 81 NNW 13 20 30.12 1020 N/A 0.00 0.00
10:56 am 10:56 Mostly Cloudy 66 18.9 58 14.4 75 75 NW 13 20 30.12 1020 N/A 0.00 0.00
11:11 am 11:11 Partly Cloudy 66 19 57 14 73 73 NNW 12 19 30.06 1018 N/A 0.00 0.00
11:23 am 11:23 Mostly Cloudy 66 19 59 15 78 78 NNW 9 15 30.06 1018 N/A 0.00 0.00
11:56 am 11:56 Mostly Cloudy 68 20 60 15.6 76 76 NNW 13 20 30.12 1020 N/A 0.00 0.00
12:04 pm 12:04 Mostly Cloudy 68 20 59 15 73 73 NNW 14 22 30.06 1018 N/A 0.00 0.00
12:12 pm 12:12 Mostly Cloudy 68 20 59 15 73 73 NNW 12 19 30.06 1018 N/A 0.00 0.00
12:56 pm 12:56 Cloudy 68 20 60 15.6 76 76 NW 14 22 30.13 1020 N/A 0.00 0.00
1:12 pm 13:12 Mostly Cloudy 70 21 61 16 73 73 N 13 20 30.03 1017 N/A 0.00 0.00
1:56 pm 13:56 Mostly Cloudy 71 21.7 58 14.4 63 63 NW 13 20 30.13 1020 N/A 0.00 0.00
2:56 pm 14:56 Mostly Cloudy 70 21.1 57 13.9 64 64 NNW 12 19 30.14 1021 N/A 0.00 0.00
3:56 pm 15:56 Partly Cloudy 70 21.1 56 13.3 61 61 NW 12 19 30.14 1021 N/A 0.00 0.00
4:56 pm 16:56 Mostly Cloudy 70 21.1 59 15 68 68 N 12 19 30.14 1021 N/A 0.00 0.00
5:56 pm 17:56 Cloudy 70 21.1 58 14.4 66 66 N 8 13 30.14 1021 N/A 0.00 0.00
6:56 pm 18:56 Mostly Sunny 71 21.7 58 14.4 63 63 NNW 8 13 30.14 1021 N/A 0.00 0.00
7:56 pm 19:56 Sunny 68 20 59 15 73 73 N 5 7 30.14 1021 N/A 0.00 0.00
8:56 pm 20:56 Clear 65 18.3 60 15.6 84 84 N 5 7 30.15 1021 N/A 0.00 0.00
9:56 pm 21:56 Clear 63 17.2 59 15 87 87 N 5 7 30.16 1022 N/A 0.00 0.00
10:56 pm 22:56 Clear 60 15.6 58 14.4 93 93 Calm 30.17 1022 N/A 0.00 0.00
11:56 pm 23:56 Clear 59 15 57 13.9 93 93 Calm 30.17 1022 N/A 0.00 0.00

Powered by AerisWeather